weather.gov     
National Weather Service

Terminal Aerodrome Forecast
NWS Homepage
This page is being discontinued on March 12, 2014.
The same data is available at this site. Please update your bookmarks.
Thank you, and we apologize for the inconvenience.
Please send an email to SR-SRH.Webmaster@noaa.gov with any concerns.


Current Version
Previous Version:    01  02  03  04  05  06  07  08  09  10  11  12  13  14  15  16  17  18  19  20  21  22  23  24  25  26  27  28  29  30  
   31  32  33  34  35  36  37  
[Printable]
394
FTUS45 KBOI 280609 AAA
TAFJER
TAF AMD
KJER 280609Z 2806/2906 20006KT 2SM -RA BR OVC003
     FM280900 23006KT 1/2SM FG VV002
     FM282000 24007KT 5SM BR BKN050
     FM290400 05007KT P6SM SKC=


394
FTUS45 KBOI 280609 AAA
TAFJER
TAF AMD
KJER 280609Z 2806/2906 20006KT 2SM -RA BR OVC003
     FM280900 23006KT 1/2SM FG VV002
     FM282000 24007KT 5SM BR BKN050
     FM290400 05007KT P6SM SKC=




U.S. Dept. of Commerce
NOAA National Weather Service
1325 East West Highway
Silver Spring, MD 20910
E-mail: w-nws.webmaster@noaa.gov
Page last modified: May 16, 2007
NATIONAL WEATHER SERVICE: for Safety, for Work, for Fun - FOR LIFE